Tracking 19242 objects as of 16-Aug-2018
HD Live streaming from Space Station
objects crossing your sky now

COSMOS 761

Track COSMOS 761 now!
10-day predictions
COSMOS 761 is classified as:


NORAD ID: 8285
Int'l Code: 1975-086A
Perigee: 1,407.1 km
Apogee: 1,488.1 km
Inclination: 74.0 °
Period: 114.7 minutes
Semi major axis: 7818 km
RCS: 0.7223 m2 (medium)
Launch date: September 17, 1975
Source: Commonwealth of Independent States (former USSR) (CIS)
Launch site: PLESETSK MISSILE AND SPACE COMPLEX (PKMTR)
aabbcc
Your satellite tracking list
Your tracking list is empty




NASA's NSSDC Master Catalog

Two Line Element Set (TLE):
1 08285U 75086A   18228.57019134 -.00000011  00000-0  31546-4 0  9996
2 08285  74.0073 275.1637 0051759  90.1526  62.1359 12.55768134967456
Source of the keplerian elements: AFSPC